FW6564 Weather Reports


time (UTC)temp
C
wind
direction
speed
KPH
gust
KPH
rain 1hr
cm
rain 24hr
cm
rain mn
cm
humidity
%
barometer
mb
20260503183040 18 115 1.6 4.8 0.00 0.00 0.00 56 1016.0
20260503182525 18 114 1.6 6.4 0.00 0.00 0.00 57 1016.0
20260503182023 18 114 3.2 9.7 0.00 0.00 0.00 55 1015.9
20260503181541 19 113 3.2 9.7 0.00 0.00 0.00 55 1015.9
20260503181023 19 112 3.2 6.4 0.00 0.00 0.00 54 1016.0
20260503180523 19 113 1.6 4.8 0.00 0.00 0.00 53 1016.1
20260503180038 20 0 0.0 4.8 0.00 0.00 0.00 54 1016.0
20260503175525 20 0 1.6 4.8 0.00 0.00 0.00 54 1016.1
20260503175025 20 0 0.0 9.7 0.00 0.00 0.00 54 1015.9
20260503174541 20 112 3.2 9.7 0.00 0.00 0.00 54 1016.0
20260503174030 20 106 3.2 11.3 0.00 0.00 0.00 54 1015.9
20260503173523 20 114 1.6 11.3 0.00 0.00 0.00 55 1015.9
20260503173041 20 115 4.8 11.3 0.00 0.00 0.00 54 1016.0
20260503172525 20 114 3.2 9.7 0.00 0.00 0.00 54 1016.0
20260503172025 20 112 3.2 12.9 0.00 0.00 0.00 54 1015.9
20260503171541 20 113 3.2 12.9 0.00 0.00 0.00 53 1015.9
20260503171022 20 115 6.4 12.9 0.00 0.00 0.00 53 1015.9
20260503170523 20 115 4.8 14.5 0.00 0.00 0.00 54 1016.0
20260503150523 21 112 14.5 24.1 0.00 0.00 0.00 54 1016.6
20260503131026 21 88 12.9 19.3 0.00 0.00 0.00 62 1017.4
20260503130528 21 77 12.9 19.3 0.00 0.00 0.00 60 1017.5
20260503110527 21 338 6.4 17.7 0.00 0.00 0.00 61 1018.1
20260503081555 20 294 3.2 8.0 0.00 0.00 0.00 52 1019.3
20260503081029 20 0 1.6 6.4 0.00 0.00 0.00 52 1019.4
20260503080527 20 0 1.6 6.4 0.00 0.00 0.00 53 1019.3
20260503072527 17 287 3.2 11.3 0.00 0.00 0.00 61 1019.5
20260503072027 17 306 3.2 12.9 0.00 0.00 0.00 63 1019.4
20260503071541 17 305 4.8 12.9 0.00 0.00 0.00 62 1019.6
20260503071026 16 296 4.8 12.9 0.00 0.00 0.00 63 1019.6
20260503070526 16 308 3.2 11.3 0.00 0.00 0.00 63 1019.5
20260503060109 12 188 0.0 6.4 0.00 0.00 0.00 72 1019.5
20260503055026 12 0 1.6 4.8 0.00 0.00 0.00 76 1019.4
20260503054555 11 111 0.0 3.2 0.00 0.00 0.00 77 1019.5
20260503054026 11 0 0.0 3.2 0.00 0.00 0.00 78 1019.5
20260503053526 11 0 0.0 1.6 0.00 0.00 0.00 78 1019.5
20260503053044 10 0 0.0 1.6 0.00 0.00 0.00 79 1019.5
20260503052529 10 0 0.0 1.6 0.00 0.00 0.00 79 1019.4
20260503052026 10 0 0.0 0.0 0.00 0.00 0.00 80 1019.4
20260503051539 10 0 0.0 0.0 0.00 0.00 0.00 81 1019.4
20260503051026 10 0 0.0 0.0 0.00 0.00 0.00 82 1019.3
20260503050611 9 0 0.0 0.0 0.00 0.00 0.00 83 1019.5
20260503050044 9 0 0.0 0.0 0.00 0.00 0.00 83 1019.4
20260503045525 8 0 0.0 0.0 0.00 0.00 0.00 84 1019.3
20260503045025 8 0 0.0 0.0 0.00 0.00 0.00 85 1019.3
20260503044541 8 0 0.0 0.0 0.00 0.00 0.00 85 1019.3
20260503044026 7 0 0.0 0.0 0.00 0.00 0.00 84 1019.2
20260503043525 7 0 0.0 0.0 0.00 0.00 0.00 85 1019.3
20260503043042 7 0 0.0 0.0 0.00 0.00 0.00 85 1019.3
20260503042526 7 0 0.0 0.0 0.00 0.00 0.00 85 1019.3
20260503042026 7 0 0.0 0.0 0.00 0.00 0.00 85 1019.3
20260503041543 7 0 0.0 0.0 0.00 0.00 0.00 84 1019.2
20260503041029 7 0 0.0 0.0 0.00 0.00 0.00 84 1019.2
20260503040526 7 0 0.0 0.0 0.00 0.00 0.00 84 1019.2
20260503040048 7 0 0.0 0.0 0.00 0.00 0.00 83 1019.2
20260503035526 7 0 0.0 0.0 0.00 0.00 0.00 83 1019.2
20260503035026 7 0 0.0 0.0 0.00 0.00 0.00 83 1019.1
20260503034545 7 0 0.0 0.0 0.00 0.00 0.00 83 1019.2
20260503034027 7 0 0.0 0.0 0.00 0.00 0.00 83 1019.2
20260503033526 7 0 0.0 0.0 0.00 0.00 0.00 83 1019.2
20260503033041 7 0 0.0 0.0 0.00 0.00 0.00 83 1019.3
20260503032527 7 0 0.0 0.0 0.00 0.00 0.00 83 1019.2
20260503032027 7 0 0.0 0.0 0.00 0.00 0.00 83 1019.3
20260503031546 7 0 0.0 0.0 0.00 0.00 0.00 83 1019.2
20260503031028 7 0 0.0 0.0 0.00 0.00 0.00 82 1019.3
20260503030527 7 0 0.0 0.0 0.00 0.00 0.00 82 1019.3
20260503030046 7 0 0.0 0.0 0.00 0.00 0.00 82 1019.3
20260503025526 7 0 0.0 0.0 0.00 0.00 0.00 82 1019.4
20260503025026 7 0 0.0 0.0 0.00 0.00 0.00 82 1019.4
20260503024542 7 0 0.0 1.6 0.00 0.00 0.00 82 1019.3
20260503024027 7 0 0.0 1.6 0.00 0.00 0.00 82 1019.4
20260503023527 7 0 0.0 1.6 0.00 0.00 0.00 82 1019.3
20260503023039 7 0 0.0 1.6 0.00 0.00 0.00 81 1019.3
20260503022527 7 0 0.0 1.6 0.00 0.00 0.00 82 1019.4
20260503022027 7 0 0.0 0.0 0.00 0.00 0.00 81 1019.4
20260503021543 7 0 0.0 0.0 0.00 0.00 0.00 81 1019.4
20260503021026 7 0 0.0 0.0 0.00 0.00 0.00 81 1019.5
20260503020527 8 0 0.0 0.0 0.00 0.00 0.00 81 1019.5
20260503020044 8 0 0.0 0.0 0.00 0.00 0.00 81 1019.5
20260503015527 8 0 0.0 0.0 0.00 0.00 0.00 81 1019.6
20260503015030 8 0 0.0 0.0 0.00 0.00 0.00 80 1019.6
20260503014541 8 0 0.0 0.0 0.00 0.00 0.00 80 1019.6
20260503014027 8 0 0.0 0.0 0.00 0.00 0.00 80 1019.6
20260503013527 8 0 0.0 0.0 0.00 0.00 0.00 80 1019.6
20260503013042 8 0 0.0 0.0 0.00 0.00 0.00 80 1019.6
20260503012527 8 0 0.0 1.6 0.00 0.00 0.00 79 1019.7
20260503012027 8 0 0.0 1.6 0.00 0.00 0.00 79 1019.7
20260503011542 8 0 0.0 0.0 0.00 0.00 0.00 79 1019.8
20260503011026 8 0 0.0 1.6 0.00 0.00 0.00 79 1019.8
20260503010528 8 0 0.0 1.6 0.00 0.00 0.00 78 1019.8
20260503010040 8 0 0.0 1.6 0.00 0.00 0.00 78 1019.9
20260503005526 8 0 0.0 0.0 0.00 0.00 0.00 77 1019.9
20260503005031 8 0 0.0 1.6 0.00 0.00 0.00 77 1019.9
20260503004607 8 0 0.0 1.6 0.00 0.00 0.00 77 1019.9
20260503004030 8 0 0.0 1.6 0.00 0.00 0.00 77 1019.9
20260503003526 8 0 0.0 1.6 0.00 0.00 0.00 77 1019.9
20260503003041 8 0 0.0 1.6 0.00 0.00 0.00 77 1019.9
20260503002526 8 0 0.0 1.6 0.00 0.00 0.00 76 1020.1
20260503002026 8 0 0.0 1.6 0.00 0.00 0.00 76 1020.1
20260503001544 9 0 0.0 0.0 0.00 0.00 0.00 76 1020.2
20260503001026 9 0 0.0 0.0 0.00 0.00 0.00 76 1020.2
20260503000526 9 0 0.0 0.0 0.00 0.00 0.00 76 1020.3
20260503000048 9 0 0.0 0.0 0.00 0.00 0.00 76 1020.3
20260502235526 9 0 0.0 3.2 0.00 0.00 0.00 75 1020.3
20260502235026 9 0 0.0 4.8 0.00 0.00 0.00 75 1020.4
20260502234550 9 0 0.0 4.8 0.00 0.00 0.00 76 1020.3
20260502234028 9 111 0.0 3.2 0.00 0.00 0.00 75 1020.4
20260502233524 9 0 0.0 3.2 0.00 0.00 0.00 75 1020.5
20260502233040 9 110 0.0 3.2 0.00 0.00 0.00 75 1020.4
20260502232526 9 0 0.0 1.6 0.00 0.00 0.00 74 1020.5
20260502232026 9 110 0.0 0.0 0.00 0.00 0.00 74 1020.6
20260502231536 10 0 0.0 0.0 0.00 0.00 0.00 74 1020.7
20260502231026 10 0 0.0 3.2 0.00 0.00 0.00 74 1020.6
20260502230527 10 0 0.0 4.8 0.00 0.00 0.00 74 1020.7
20260502230046 10 0 0.0 4.8 0.00 0.00 0.00 74 1020.8
20260502225525 10 109 0.0 3.2 0.00 0.00 0.00 73 1020.7
20260502225025 10 0 0.0 1.6 0.00 0.00 0.00 73 1020.7
20260502224542 10 0 0.0 3.2 0.00 0.00 0.00 73 1020.7
20260502224027 10 0 0.0 3.2 0.00 0.00 0.00 73 1020.8
20260502223527 10 0 0.0 3.2 0.00 0.00 0.00 73 1020.9
20260502223041 10 109 0.0 4.8 0.00 0.00 0.00 73 1020.8
20260502222527 10 0 0.0 4.8 0.00 0.00 0.00 72 1020.9
20260502222026 10 0 0.0 1.6 0.00 0.00 0.00 72 1020.8
20260502221540 10 0 0.0 0.0 0.00 0.00 0.00 72 1020.8
20260502221027 10 0 0.0 0.0 0.00 0.00 0.00 72 1020.8
20260502220526 10 0 0.0 0.0 0.00 0.00 0.00 72 1020.8
20260502220042 10 0 0.0 3.2 0.00 0.00 0.00 71 1020.9
20260502215527 10 0 0.0 3.2 0.00 0.00 0.00 71 1020.8
20260502215026 11 0 0.0 3.2 0.00 0.00 0.00 71 1020.9
20260502214545 11 0 0.0 3.2 0.00 0.00 0.00 71 1021.0
20260502214026 11 0 0.0 1.6 0.00 0.00 0.00 70 1021.0
20260502213526 11 0 0.0 1.6 0.00 0.00 0.00 70 1021.0
20260502213041 11 109 0.0 0.0 0.00 0.00 0.00 70 1021.0
20260502212526 11 0 0.0 4.8 0.00 0.00 0.00 69 1021.0
20260502212026 11 0 0.0 4.8 0.00 0.00 0.00 69 1021.1
20260502211542 11 109 1.6 4.8 0.00 0.00 0.00 69 1021.1
20260502211023 11 0 0.0 1.6 0.00 0.00 0.00 68 1021.1
20260502210522 11 0 0.0 3.2 0.00 0.00 0.00 68 1021.0
20260502210041 11 0 0.0 3.2 0.00 0.00 0.00 68 1021.0
20260502205527 11 0 0.0 3.2 0.00 0.00 0.00 68 1021.1
20260502205029 11 0 0.0 6.4 0.00 0.00 0.00 67 1021.0
20260502204540 12 0 0.0 6.4 0.00 0.00 0.00 67 1021.2
20260502204026 12 108 1.6 4.8 0.00 0.00 0.00 67 1021.1
20260502203527 12 0 0.0 3.2 0.00 0.00 0.00 66 1021.0
20260502203041 12 0 0.0 3.2 0.00 0.00 0.00 66 1021.1
20260502202529 12 0 0.0 3.2 0.00 0.00 0.00 65 1021.1
20260502202026 12 0 0.0 3.2 0.00 0.00 0.00 65 1021.1
20260502201549 12 0 0.0 3.2 0.00 0.00 0.00 64 1021.0
20260502201026 12 0 0.0 1.6 0.00 0.00 0.00 64 1021.1
20260502200526 12 0 0.0 1.6 0.00 0.00 0.00 63 1021.1
20260502200043 13 0 0.0 3.2 0.00 0.00 0.00 62 1021.1
20260502195525 13 0 0.0 6.4 0.00 0.00 0.00 62 1021.2
20260502195025 13 0 0.0 6.4 0.00 0.00 0.00 61 1021.1
20260502194541 13 105 1.6 6.4 0.00 0.00 0.00 61 1021.1
20260502194026 13 0 0.0 4.8 0.00 0.00 0.00 62 1021.0
20260502193527 13 0 0.0 3.2 0.00 0.00 0.00 62 1021.1
20260502193048 13 104 0.0 1.6 0.00 0.00 0.00 62 1021.0
20260502192531 13 0 0.0 4.8 0.00 0.00 0.00 61 1020.9
20260502192026 14 0 0.0 4.8 0.00 0.00 0.00 60 1021.0
20260502191546 14 104 0.0 4.8 0.00 0.00 0.00 60 1020.9
20260502191026 14 0 0.0 4.8 0.00 0.00 0.00 59 1020.9
20260502190526 14 0 0.0 1.6 0.00 0.00 0.00 59 1020.8
20260502190041 15 0 0.0 1.6 0.00 0.00 0.00 60 1020.8
20260502185526 15 0 0.0 0.0 0.00 0.00 0.00 59 1020.8
20260502185026 15 0 0.0 0.0 0.00 0.00 0.00 58 1020.7
20260502184554 15 0 0.0 1.6 0.00 0.00 0.00 57 1020.7
20260502184026 16 0 0.0 1.6 0.00 0.00 0.00 56 1020.6
20260502183526 16 0 0.0 3.2 0.00 0.00 0.00 55 1020.6